Temp
33 31 30 32 34 36 36 35 35 35 37 39 33 32 31 32 28 27 24 25 27 28 27 30 29 28 29 28 29 28 27 26 25 25 25 25 26 26 26 26 26 25 26 24
32 31 33 35 36 37 36 34 34 36 37 37 36 36 35 33 29 27 26 26 26 27 27 29 30 26 27 28 28 27 25 26 26 26 26 26 26 26 26 26 25 26 27 26
31 33 36 36 36 36 35 34 35 35 36 37 36 34 34 34 30 27 27 27 26 28 27 29 31 26 25 25 27 26 26 26 27 26 26 26 26 24 24 25 25 26 26 25
32 35 36 36 35 36 33 34 36 38 35 32 34 29 33 30 31 28 27 26 26 28 28 31 31 29 26 25 26 26 26 26 26 26 26 26 26 26 26 26 26 26 26 26
32 34 35 35 36 35 32 36 35 37 35 35 34 31 29 29 32 32 33 27 26 21 24 31 32 32 29 27 26 27 27 26 26 26 26 26 25 25 25 26 26 26 26 25
33 36 36 35 37 37 38 35 35 35 32 29 30 31 29 29 29 30 32 30 28 22 23 33 33 31 29 29 28 28 27 26 26 26 25 25 25 25 25 26 26 26 25 24
33 35 36 37 35 36 37 31 29 27 28 28 28 30 30 32 32 32 33 32 33 31 32 32 30 30 28 27 27 27 26 26 26 25 25 25 25 25 25 25 25 25 24 24
30 31 35 37 35 35 34 33 29 30 28 28 31 30 31 35 35 32 33 34 34 33 32 31 30 29 29 27 26 26 26 25 25 25 26 25 25 25 25 25 25 24 24 24
31 32 36 37 37 36 34 32 34 30 29 30 30 32 33 35 35 37 35 34 31 33 32 31 30 29 29 28 26 26 25 25 25 26 25 25 25 25 25 25 25 24 24 24
33 30 34 36 37 37 34 35 31 30 29 30 31 31 30 32 32 35 34 33 33 32 31 31 31 30 29 28 27 26 26 26 26 26 25 25 25 25 25 25 25 25 24 24
33 31 33 36 34 33 33 33 34 31 29 29 29 28 32 28 31 30 33 34 33 32 31 31 30 30 30 29 27 26 26 26 26 25 25 25 25 26 25 26 25 25 24 24
33 32 30 32 36 37 35 34 33 28 30 29 29 27 33 29 32 30 30 34 34 32 31 31 30 30 29 28 27 27 27 27 26 26 25 26 26 26 26 26 25 24 24 23
34 30 29 31 32 36 35 35 34 32 33 32 29 29 28 28 29 27 28 29 25 26 29 30 29 28 28 28 28 28 28 27 26 26 26 26 26 26 25 25 24 24 23 23
33 32 30 29 31 31 33 33 33 34 32 30 30 30 30 32 33 28 26 27 25 24 25 29 28 28 28 28 28 28 27 26 26 26 26 26 26 25 24 24 24 24 23 22
33 31 31 32 32 33 35 34 33 34 34 31 29 29 28 28 28 32 31 26 25 24 25 29 28 26 26 27 28 28 27 27 27 26 26 26 26 25 24 24 23 23 22 21
32 29 31 32 33 34 34 34 35 36 36 31 30 29 27 26 28 32 29 28 31 31 30 29 27 26 26 26 27 28 27 27 27 26 26 25 25 24 23 23 22 21 21 21
28 29 29 29 32 33 31 33 35 36 33 31 28 28 27 27 31 30 30 27 31 30 29 28 28 27 27 27 27 27 26 26 26 25 25 24 24 23 22 22 21 20 20 20
30 29 28 28 28 29 32 35 34 33 35 34 32 29 27 28 30 31 28 26 30 29 28 27 27 28 27 27 27 27 25 25 25 25 23 22 22 21 21 21 20 19 19 19
32 29 28 26 26 27 31 34 35 34 35 35 31 29 29 28 27 24 29 26 29 27 26 27 28 27 25 26 22 21 23 24 22 22 23 23 23 20 19 19 19 19 19 18
29 31 30 29 27 27 29 33 32 34 31 33 30 29 29 26 22 21 24 27 26 26 27 26 26 24 21 20 22 22 21 21 21 22 21 20 20 20 19 19 19 18 19 18
24 28 29 30 29 30 26 28 30 31 29 30 33 31 29 27 25 23 23 25 25 25 24 24 23 22 21 19 21 20 21 21 21 20 20 20 20 19 18 19 19 18 18 18
22 25 28 29 29 28 26 26 25 24 23 28 30 29 28 27 27 25 25 24 23 23 23 22 21 20 20 20 20 19 19 19 20 20 20 19 19 19 18 18 17 18 17 16
24 23 23 24 25 24 24 22 22 22 21 20 28 28 27 27 26 25 24 23 23 22 21 21 20 20 20 20 21 19 19 20 20 19 19 18 18 18 18 18 17 17 16 15
21 22 24 22 23 24 24 25 24 23 22 24 28 29 28 26 25 24 24 23 22 22 21 20 19 19 18 19 19 19 19 19 19 19 19 19 19 19 19 19 18 17 16 15
20 19 24 25 21 23 25 25 25 25 26 24 30 29 28 26 25 24 24 23 23 22 21 21 19 18 18 18 18 19 19 19 19 19 19 19 19 19 19 18 17 17 16 16
20 20 23 22 20 21 22 24 25 25 28 31 30 29 28 27 26 25 23 23 23 22 21 20 19 19 19 18 18 18 19 19 19 19 19 20 19 19 19 18 17 16 16 15
Height
746 770 784 767 751 749 751 763 762 748 733 734 756 756 751 750 763 771 769 757 750 755 759 767 766 769 775 781 783 785 790 797 803 806 808 808 810 807 807 810 812 819 816 814
760 774 754 740 740 747 750 765 766 748 733 736 742 748 740 745 755 752 755 760 756 752 759 763 763 766 771 775 780 785 789 795 800 803 805 807 807 806 808 809 808 812 811 806
769 756 736 741 745 750 754 760 756 757 739 730 742 760 756 743 753 760 760 760 749 748 755 759 759 764 770 774 776 783 788 792 796 799 802 805 806 809 808 808 808 808 805 806
755 735 739 743 748 740 769 742 744 739 756 788 743 811 762 757 750 756 753 759 766 758 760 760 758 764 769 772 775 780 786 791 795 799 801 803 804 807 809 808 808 807 805 805
756 744 744 747 740 734 760 735 745 739 754 759 760 787 781 761 754 744 731 751 759 771 777 760 756 761 765 769 773 778 784 789 793 797 799 801 802 805 806 807 807 807 805 805
739 717 725 730 718 720 717 743 744 743 762 810 785 779 791 775 758 745 729 734 760 773 763 753 755 759 762 765 771 777 783 788 791 795 797 800 802 804 805 805 805 805 804 806
746 734 717 712 733 720 727 767 801 826 819 822 784 789 776 748 739 733 729 727 730 743 740 745 753 757 760 764 770 776 781 787 790 794 796 799 801 802 803 805 805 805 806 806
772 777 729 711 727 739 739 750 797 816 827 814 772 800 778 731 719 723 720 719 723 730 734 741 747 752 759 766 771 775 780 785 790 794 796 798 801 802 803 804 805 806 806 806
765 760 712 709 707 716 740 760 735 784 786 800 792 771 749 725 726 716 718 718 729 730 735 741 747 753 759 765 772 777 782 786 789 792 795 798 800 801 803 804 805 805 807 807
734 769 721 709 702 705 725 721 770 774 820 816 789 784 784 756 749 724 725 726 728 731 737 741 746 751 757 764 770 776 780 783 787 789 793 796 799 800 801 803 805 806 805 806
722 746 733 714 725 736 736 745 742 757 781 805 814 804 751 761 741 741 721 720 726 730 735 739 746 752 755 761 768 774 778 781 786 789 793 797 800 802 802 803 804 805 805 804
712 732 757 738 702 693 710 729 736 786 783 767 780 802 736 745 740 730 734 718 716 719 730 737 744 753 757 761 765 770 775 780 786 791 794 798 800 802 803 804 805 806 805 804
709 742 770 753 728 699 716 715 719 729 734 758 785 790 748 740 734 736 737 740 739 737 743 740 745 751 758 760 764 770 777 781 787 791 796 799 801 803 804 806 807 807 806 805
698 727 748 773 748 733 734 726 719 725 751 761 762 760 744 733 729 742 751 745 727 729 748 739 741 749 756 761 767 772 779 783 788 792 796 799 801 804 805 806 808 807 806 806
705 740 733 729 724 724 723 721 724 729 725 754 760 757 745 737 738 722 715 741 737 732 744 731 734 746 754 759 764 772 776 781 785 789 795 798 799 801 803 805 807 808 808 806
700 741 728 736 719 717 728 719 718 709 707 729 740 756 741 736 723 716 722 721 723 724 731 733 735 744 751 755 759 766 772 776 780 784 791 796 799 801 803 805 807 806 807 806
728 729 743 760 727 723 744 720 709 702 703 720 751 745 736 734 718 716 715 727 726 727 729 732 736 741 747 756 763 771 779 782 781 784 791 794 799 803 804 803 804 805 805 806
725 730 736 756 743 770 719 687 696 712 692 695 709 723 724 722 711 708 715 726 728 724 728 733 736 738 748 755 762 768 775 779 786 786 788 791 798 803 807 805 805 804 804 805
698 717 739 765 770 749 717 705 703 699 701 683 707 717 720 722 729 739 719 720 727 723 727 734 740 740 749 755 770 771 774 777 787 787 788 790 791 798 805 806 806 805 803 802
706 705 722 737 764 773 720 695 682 675 728 681 693 711 721 733 771 765 739 727 724 729 734 740 746 749 753 761 765 771 775 782 784 784 789 793 793 795 804 805 805 805 800 803
753 725 727 728 739 725 719 709 683 730 739 700 690 702 719 730 731 738 736 732 733 736 740 746 751 756 759 761 766 772 778 780 783 788 791 794 797 798 802 804 805 803 803 802
769 756 732 720 731 747 708 709 735 733 726 712 693 699 715 719 725 732 731 732 738 743 749 752 755 759 763 765 765 773 778 784 787 790 793 796 797 799 802 804 804 801 801 802
760 754 757 744 732 717 713 715 715 714 721 724 704 700 710 723 729 733 740 742 747 750 753 755 757 762 766 765 769 776 782 786 788 792 793 796 799 800 801 802 802 801 802 803
747 742 741 747 736 729 722 717 701 683 707 718 715 703 712 730 735 738 741 746 748 751 754 755 761 766 770 774 775 777 783 787 788 791 793 796 797 799 801 800 800 802 804 807
755 752 736 736 737 717 724 726 708 699 698 712 707 706 717 727 730 733 742 744 746 752 757 761 763 766 771 775 780 782 785 788 790 792 794 796 797 799 799 800 803 804 805 805
757 753 747 750 742 736 727 715 711 713 708 698 703 710 717 723 729 733 737 738 745 752 757 764 768 772 775 778 780 784 786 788 790 793 795 796 798 799 800 801 802 804 804 804
Wind_Speed
9 4 7 14 14 7 3 0 8 10 10 1 11 10 10 16 23 16 9 9 12 12 8 22 32 37 34 31 17 17 25 19 17 16 17 13 14 14 15 17 6 6 6 8
7 11 12 17 17 3 6 14 18 7 8 4 5 4 10 16 23 23 17 11 10 7 4 11 29 34 40 35 25 23 28 25 19 16 14 12 5 14 15 18 10 10 10 10
10 10 16 18 17 12 10 14 7 7 3 5 2 7 8 4 19 13 6 7 6 2 9 12 23 32 31 31 30 27 24 26 21 16 12 10 8 8 4 6 12 9 9 9
9 16 17 16 12 12 3 12 17 6 4 4 5 6 4 2 4 20 19 14 8 3 17 13 16 27 31 34 31 26 25 24 19 18 11 10 4 3 2 8 12 9 9 10
14 14 13 15 14 4 6 15 8 6 6 3 6 4 6 6 4 5 7 18 16 10 21 16 16 24 33 31 29 25 23 23 19 17 7 8 5 5 4 2 0 4 14 6
11 14 12 14 13 9 16 6 6 9 4 5 10 1 4 4 8 6 12 10 27 30 31 20 23 27 28 31 29 25 21 19 14 12 8 4 2 2 2 4 7 12 18 13
13 14 14 9 8 11 5 7 1 5 3 3 6 7 6 15 11 10 15 9 18 24 16 17 18 22 25 27 28 25 21 18 14 11 9 7 5 3 1 5 10 13 15 16
7 8 8 9 11 7 8 7 5 7 3 3 9 4 6 7 9 10 14 8 15 17 18 19 18 22 26 25 28 25 22 18 16 13 11 10 6 4 10 9 10 14 13 15
7 10 10 14 13 8 10 3 5 6 2 4 4 12 8 6 4 9 8 11 11 15 17 19 18 23 24 27 27 27 22 19 16 14 14 12 11 9 9 10 10 10 11 11
13 7 10 13 12 7 8 4 4 3 5 3 4 4 4 8 20 4 10 11 13 15 12 15 13 23 25 28 30 27 23 21 19 18 14 12 10 8 11 8 8 6 7 10
12 6 20 6 8 9 5 3 3 3 7 5 1 4 7 2 3 12 4 15 15 14 10 13 11 23 27 30 31 28 23 21 22 18 15 13 10 7 9 7 4 4 4 7
10 4 5 11 8 15 10 12 12 5 8 6 6 5 5 9 3 12 16 5 17 16 13 16 15 18 23 25 30 29 24 24 23 18 17 11 12 8 8 7 5 3 6 7
6 4 5 11 10 7 12 8 10 8 7 6 5 5 7 8 12 16 16 9 15 19 7 13 14 15 20 25 27 25 23 24 24 21 14 12 10 6 8 7 8 6 9 9
7 2 5 6 6 3 6 7 15 6 4 3 2 5 5 2 2 12 4 11 24 24 22 10 13 12 20 22 21 24 22 24 23 18 16 14 9 10 8 6 7 10 10 11
6 3 6 1 6 4 9 21 19 21 6 6 9 7 6 6 5 2 3 12 13 19 21 16 16 11 19 23 24 22 23 26 20 17 16 12 8 5 2 7 11 12 11 11
6 6 5 4 8 10 14 16 20 26 8 9 11 2 2 6 7 1 4 6 8 18 15 16 13 14 18 22 26 21 20 26 22 21 15 10 5 2 6 8 11 10 10 13
6 4 4 7 10 9 9 7 16 2 12 15 8 7 6 4 3 4 5 6 17 17 13 15 15 15 22 23 26 23 20 20 18 17 12 8 6 6 10 8 7 10 13 14
14 7 4 3 5 1 8 14 8 14 8 13 15 18 17 13 10 7 4 5 6 11 10 11 10 16 23 25 26 24 26 20 17 15 18 19 16 16 15 8 9 10 11 13
10 4 3 5 3 6 7 8 7 7 3 11 20 18 19 6 7 10 17 10 10 9 8 11 14 13 21 26 27 31 29 22 15 19 17 15 15 11 5 5 9 12 11 12
17 10 7 3 7 6 7 5 15 6 4 9 29 25 20 10 10 5 8 6 12 12 20 22 23 24 28 25 40 36 18 18 16 13 8 11 14 11 6 6 8 9 12 13
10 9 10 9 6 4 1 13 12 5 1 6 21 19 15 11 13 13 9 9 12 14 22 26 25 24 24 31 33 28 24 17 13 13 14 10 9 12 7 6 7 9 13 18
3 6 4 6 7 2 5 4 7 6 7 5 16 19 19 20 18 13 12 10 11 15 21 24 23 23 22 24 30 24 20 16 17 15 11 9 10 6 7 7 11 17 15 17
3 4 6 4 3 1 4 12 11 14 7 10 7 16 18 17 16 14 10 9 11 18 19 21 23 23 21 25 23 22 18 15 12 11 11 10 9 7 5 9 15 16 18 16
4 5 4 6 11 7 4 2 9 15 9 11 13 14 15 14 14 15 11 11 10 17 18 23 23 20 20 17 19 20 15 13 12 12 10 9 9 8 9 9 9 10 13 12
2 5 7 2 10 10 8 8 11 18 18 19 9 16 15 13 12 11 11 9 11 17 19 20 19 19 22 20 17 15 14 13 13 12 9 6 9 7 9 8 8 8 8 8
3 4 4 3 6 5 9 10 9 13 19 16 15 13 11 11 12 10 10 14 15 16 21 20 21 22 22 20 18 14 14 12 11 11 9 8 11 9 5 7 9 7 5 6
Wind_Direction
234 207 226 252 253 239 270 195 279 274 293 62 176 197 216 136 131 161 170 178 188 226 183 205 157 167 173 180 187 195 196 193 193 194 192 212 225 238 248 257 266 319 316 328
252 223 234 248 256 213 5 280 271 254 283 167 274 214 192 140 155 166 176 182 224 122 228 221 156 160 173 186 194 202 205 203 197 190 188 215 204 244 239 264 257 285 322 340
219 234 225 244 261 246 186 244 279 191 246 255 330 310 140 133 163 170 173 205 270 322 204 229 163 161 174 183 187 191 199 201 202 195 202 215 220 150 167 213 227 268 324 324
244 239 245 234 244 259 208 288 299 228 159 241 196 240 129 115 115 180 190 201 204 126 273 223 159 167 169 177 182 178 182 194 197 196 196 198 164 199 255 244 244 261 310 312
248 242 242 251 241 139 219 244 281 324 284 270 323 95 297 329 258 251 205 171 188 59 288 208 171 156 156 160 167 165 176 188 180 187 161 179 181 203 324 182 348 304 329 293
228 245 242 243 256 195 161 236 315 334 288 51 328 357 264 207 217 241 260 162 171 173 221 179 163 142 138 145 148 156 160 164 175 185 185 165 146 170 19 31 27 28 86 79
266 245 256 237 266 283 224 143 65 294 11 211 334 360 213 224 215 214 230 249 150 166 153 135 132 135 136 139 148 155 162 163 164 177 180 179 158 152 89 56 41 39 65 54
237 277 246 252 209 228 241 203 161 216 122 256 2 302 264 262 241 212 247 176 123 122 128 129 137 137 140 141 146 151 154 158 168 167 170 158 150 98 92 69 59 68 51 34
229 239 235 229 252 193 267 260 219 106 188 78 212 245 322 343 278 195 144 121 119 123 124 126 133 139 138 142 144 147 151 154 160 167 156 151 130 108 95 84 66 66 41 24
261 294 260 212 225 220 193 187 5 20 165 177 276 215 211 149 265 205 136 123 117 118 122 131 134 132 140 144 149 152 156 164 168 165 163 153 137 124 115 100 78 73 48 31
233 214 277 293 198 190 245 160 188 238 147 163 220 300 17 247 12 36 248 138 130 131 133 134 131 142 145 146 150 155 161 173 165 161 155 149 150 134 143 128 132 132 60 47
222 209 266 251 241 192 200 197 203 150 267 227 115 234 219 282 221 74 29 163 152 143 125 124 130 131 137 144 149 161 171 167 162 159 154 154 159 140 130 148 137 106 80 17
224 250 265 306 322 223 200 233 210 193 205 272 129 204 198 264 90 96 123 278 82 40 27 131 126 132 142 150 160 169 170 157 157 150 146 147 141 108 89 96 75 34 9 1
95 290 185 218 233 66 305 307 320 247 256 120 143 172 255 270 251 138 153 156 130 144 221 167 136 143 148 152 151 140 140 145 148 146 152 154 146 89 70 54 10 357 343 345
119 241 276 28 133 174 185 265 286 294 168 130 182 192 220 242 331 43 138 120 199 164 203 158 142 137 134 131 136 138 142 148 144 151 161 137 127 104 37 11 350 344 349 354
160 233 262 215 230 207 217 257 275 281 105 99 104 39 65 256 220 272 326 20 142 144 149 158 129 139 142 143 145 149 148 149 139 137 136 129 112 30 19 5 358 17 6 3
321 178 197 261 250 204 243 230 256 339 118 142 140 201 180 258 194 234 201 50 148 157 151 151 153 150 156 154 150 145 135 139 130 120 111 97 47 23 19 40 35 35 25 11
276 231 160 181 34 262 257 251 284 289 163 182 135 162 166 176 172 248 67 132 245 146 140 146 150 156 161 157 151 143 148 138 137 135 104 83 57 39 10 18 41 32 21 13
269 195 211 129 181 291 323 280 257 191 291 90 135 146 176 150 36 356 320 267 232 133 121 108 113 140 129 141 139 157 128 118 110 101 102 106 94 61 4 54 28 10 17 30
319 269 180 177 146 202 253 295 345 347 40 126 150 169 159 122 90 290 293 61 81 80 89 104 102 91 97 116 137 133 111 121 123 115 88 90 89 90 99 41 11 33 39 11
334 278 195 215 214 131 183 294 310 83 14 333 154 167 162 163 162 185 202 90 86 85 86 96 96 100 101 120 128 119 126 114 110 108 111 102 90 95 57 46 61 25 54 58
270 291 270 214 203 240 27 22 95 250 320 287 102 117 109 118 130 130 115 98 88 96 96 101 96 95 105 111 112 107 108 117 121 123 111 92 82 80 93 85 70 72 54 55
241 53 308 301 141 32 339 130 148 81 51 261 73 110 114 124 123 116 115 107 105 109 105 99 104 103 110 118 125 120 124 131 126 118 105 101 96 85 73 95 96 66 54 62
270 354 270 1 15 3 273 197 106 79 75 282 269 113 107 118 129 133 137 137 128 122 115 111 106 98 96 112 125 126 130 129 124 122 125 134 118 102 106 95 89 70 71 79
242 330 337 299 348 1 112 315 163 157 181 207 164 122 131 146 143 139 140 136 129 126 131 125 122 122 126 129 126 132 137 142 136 138 124 120 144 111 129 119 141 120 104 93
211 210 330 250 220 150 265 288 319 261 193 157 136 134 144 141 149 154 146 139 137 133 134 128 130 133 135 135 131 134 140 142 158 146 122 106 118 104 109 148 145 156 140 145